Weather History for Mount Shasta, CA

Change the Weather History Date:

Saturday, June 14, 2014

  Actual Average Record
Temperature  
Mean Temperature 58 °F 61 °F  
Max Temperature 73 °F 77 °F 95 °F (1933)
Min Temperature 42 °F 46 °F 35 °F (1965)
Degree Days  
Heating Degree Days 7 5  
Month to date heating degree days 22 85  
Since 1 June heating degree days 22 85  
Since 1 July heating degree days 4874 5637  
Cooling Degree Days 0 1  
Month to date cooling degree days 33 14  
Year to date cooling degree days 42 22  
Since 1 June cooling degree days 33 14  
Growing Degree Days 8 (Base 50)    
Moisture  
Dew Point 35 °F    
Average Humidity 45    
Maximum Humidity 82    
Minimum Humidity 22    
Precipitation  
Precipitation 0.00 in 0.04 in 0.75 in (1995)
Month to date precipitation T 0.70  
Year to date precipitation 11.79 26.10  
Sea Level Pressure  
Sea Level Pressure 30.02 in    
Wind  
Wind Speed 5 mph (NNW)    
Max Wind Speed 12 mph    
Max Gust Speed 19 mph    
Visibility 10 miles    
Events      
T = Trace of Precipitation, MM = Missing Value Source: NWS Daily Summary

Daily Weather History Graph

Daily Weather History Graph

Search for Another Location

Airport:

Trip Planner

Search our weather history database for the weather conditions in past years. The results will help you decide how hot, cold, wet, or windy it might be!

Date:

Astronomy

Jun. 14, 2014 Rise Set
Actual Time 5:35 AM PDT 8:43 PM PDT
Civil Twilight 5:01 AM PDT 9:17 PM PDT
Nautical Twilight 4:18 AM PDT 10:01 PM PDT
Astronomical Twilight 3:26 AM PDT 10:52 PM PDT
Moon 10:10 PM PDT (6/14) 7:26 AM PDT (6/14)
Length of Visible Light 16h 16m
Length of Day
15h 08m
Waning Gibbous, 96% of the Moon is Illuminated
Jun 14
Waning Gibbous
Jun 19
Last Quarter
Jun 27
New
Jul 5
First Quarter
Jul 12
Full

Hourly Weather History & Observations

Time (PDT) Temp. Windchill Dew Point Humidity Pressure Visibility Wind Dir Wind Speed Gust Speed Precip Events Conditions
12:56 AM 50.0 °F - 37.9 °F 63% 30.13 in 10.0 mi Variable 5.8 mph - N/A   Clear
1:56 AM 48.0 °F - 37.9 °F 68% 30.11 in 10.0 mi Variable 5.8 mph - N/A   Clear
2:56 AM 46.9 °F - 37.0 °F 68% 30.11 in 10.0 mi North 8.1 mph - N/A   Clear
3:56 AM 46.0 °F 42.5 °F 37.0 °F 71% 30.11 in 10.0 mi Variable 6.9 mph - N/A   Clear
4:56 AM 45.0 °F - 37.0 °F 74% 30.11 in 10.0 mi Calm Calm - N/A   Clear
5:56 AM 43.0 °F - 37.0 °F 80% 30.12 in 10.0 mi Calm Calm - N/A   Clear
6:56 AM 46.9 °F - 39.0 °F 74% 30.12 in 10.0 mi Variable 4.6 mph - N/A   Clear
7:56 AM 50.0 °F - 39.0 °F 66% 30.10 in 10.0 mi NW 5.8 mph - N/A   Clear
8:56 AM 55.0 °F - 39.9 °F 57% 30.09 in 10.0 mi Calm Calm - N/A   Clear
9:56 AM 60.1 °F - 39.0 °F 46% 30.07 in 10.0 mi Variable 3.5 mph - N/A   Clear
10:56 AM 66.0 °F - 37.0 °F 34% 30.05 in 10.0 mi Calm Calm - N/A   Clear
11:56 AM 68.0 °F - 35.1 °F 30% 30.01 in 10.0 mi Variable 5.8 mph - N/A   Clear
12:56 PM 66.9 °F - 28.9 °F 24% 30.01 in 10.0 mi Variable 6.9 mph - N/A   Clear
1:56 PM 66.9 °F - 30.9 °F 26% 30.01 in 10.0 mi NW 8.1 mph - N/A   Clear
2:56 PM 70.0 °F - 36.0 °F 29% 29.98 in 10.0 mi Variable 5.8 mph - N/A   Clear
3:56 PM 72.0 °F - 33.1 °F 24% 29.96 in 10.0 mi Variable 4.6 mph - N/A   Clear
4:56 PM 72.0 °F - 30.0 °F 21% 29.94 in 10.0 mi Variable 6.9 mph - N/A   Partly Cloudy
5:56 PM 66.9 °F - 28.9 °F 24% 29.93 in 10.0 mi Variable 3.5 mph - N/A   Clear
6:56 PM 70.0 °F - 30.9 °F 24% 29.91 in 10.0 mi Variable 4.6 mph - N/A   Clear
7:56 PM 66.0 °F - 32.0 °F 28% 29.92 in 10.0 mi Variable 6.9 mph - N/A   Clear
8:56 PM 62.1 °F - 32.0 °F 32% 29.93 in 10.0 mi Variable 6.9 mph - N/A   Partly Cloudy
9:56 PM 57.9 °F - 33.1 °F 39% 29.94 in 10.0 mi Variable 4.6 mph - N/A   Clear
10:56 PM 57.0 °F - 34.0 °F 42% 29.93 in 10.0 mi Variable 4.6 mph - N/A   Clear
11:56 PM 55.0 °F - 35.1 °F 47% 29.92 in 10.0 mi North - - N/A   Clear